When you browse on this site, cookies collect data to enhance your experience and personalize the content and advertising you see.
Visit our Privacy Policy to learn more. By continuing to use the site, you agree to this use of cookies and data.
  • In Germany
  • List of Countries
  • For 7 days
  • Water Temperature
  • Satellite Maps
  • Weather Map
  • Weather Widgets
  • user-avatar
    Login

    Hourly Weather El Guna

    Today, 22 January, Tuesday

    Time Temperature Precipitation Wind Pressure Humidity
    00:00 +18°C° 0 mm 1 mps 734 mmHg 27%
    01:00 +16°C° 0 mm 1 mps 734 mmHg 24%
    02:00 +16°C° 0 mm 1 mps 734 mmHg 25%
    03:00 +15°C° 0 mm 1 mps 734 mmHg 23%
    04:00 +15°C° 0 mm 1 mps 734 mmHg 22%
    05:00 +14°C° 0 mm 1 mps 734 mmHg 20%
    06:00 +16°C° 0 mm 1 mps 734 mmHg 17%
    07:00 +18°C° 0 mm 1 mps 734 mmHg 14%
    08:00 +21°C° 0 mm 1 mps 735 mmHg 11%
    09:00 +21°C° 0 mm 2 mps 735 mmHg 10%
    10:00 +23°C° 0 mm 2 mps 735 mmHg 10%
    11:00 +25°C° 0 mm 2 mps 735 mmHg 9%
    12:00 +25°C° 0 mm 2 mps 735 mmHg 9%
    13:00 +26°C° 0 mm 2 mps 735 mmHg 9%
    14:00 +26°C° 0 mm 3 mps 734 mmHg 9%
    15:00 +25°C° 0 mm 2 mps 734 mmHg 12%
    16:00 +24°C° 0 mm 2 mps 734 mmHg 15%
    17:00 +23°C° 0 mm 2 mps 734 mmHg 18%
    18:00 +20°C° 0 mm 2 mps 734 mmHg 22%
    19:00 +19°C° 0 mm 1 mps 734 mmHg 26%
    20:00 +18°C° 0 mm 1 mps 734 mmHg 30%
    21:00 +16°C° 0 mm 1 mps 734 mmHg 30%
    22:00 +16°C° 0 mm 1 mps 734 mmHg 30%
    23:00 +15°C° 0 mm 1 mps 734 mmHg 30%

    Tomorrow, 23 January, Wednesday

    Time Temperature Precipitation Wind Pressure Humidity
    00:00 +15°C° 0 mm 1 mps 734 mmHg 30%
    01:00 +14°C° 0 mm 1 mps 733 mmHg 31%
    02:00 +14°C° 0 mm 1 mps 733 mmHg 31%
    03:00 +13°C° 0 mm 1 mps 733 mmHg 32%
    04:00 +13°C° 0 mm 1 mps 733 mmHg 32%
    05:00 +12°C° 0 mm 1 mps 733 mmHg 33%
    06:00 +14°C° 0 mm 1 mps 733 mmHg 31%
    07:00 +15°C° 0 mm 1 mps 733 mmHg 29%
    08:00 +16°C° 0 mm 1 mps 734 mmHg 27%
    09:00 +19°C° 0 mm 1 mps 734 mmHg 24%
    10:00 +21°C° 0 mm 1 mps 734 mmHg 22%
    11:00 +23°C° 0 mm 1 mps 734 mmHg 19%
    12:00 +23°C° 0 mm 2 mps 733 mmHg 18%
    13:00 +24°C° 0 mm 2 mps 733 mmHg 17%
    14:00 +25°C° 0 mm 3 mps 732 mmHg 16%
    15:00 +24°C° 0 mm 2 mps 732 mmHg 20%
    16:00 +23°C° 0 mm 2 mps 732 mmHg 23%
    17:00 +21°C° 0 mm 2 mps 732 mmHg 26%
    18:00 +20°C° 0 mm 2 mps 732 mmHg 28%
    19:00 +19°C° 0 mm 2 mps 732 mmHg 30%
    20:00 +19°C° 0 mm 1 mps 732 mmHg 32%
    21:00 +18°C° 0 mm 1 mps 732 mmHg 31%
    22:00 +18°C° 0 mm 1 mps 732 mmHg 29%
    23:00 +18°C° 0 mm 1 mps 732 mmHg 28%

    Day after tomorrow, 24 January, Thursday

    Time Temperature Precipitation Wind Pressure Humidity
    00:00 +18°C° 0 mm 1 mps 732 mmHg 26%
    01:00 +18°C° 0 mm 1 mps 732 mmHg 25%
    02:00 +18°C° 0 mm 1 mps 732 mmHg 23%
    03:00 +18°C° 0 mm 1 mps 731 mmHg 23%
    04:00 +16°C° 0 mm 1 mps 731 mmHg 24%
    05:00 +16°C° 0 mm 1 mps 731 mmHg 24%
    06:00 +17°C° 0 mm 2 mps 731 mmHg 25%
    07:00 +18°C° 0 mm 2 mps 732 mmHg 25%
    08:00 +20°C° 0 mm 2 mps 732 mmHg 26%
    09:00 +22°C° 0 mm 3 mps 732 mmHg 24%
    10:00 +25°C° 0 mm 3 mps 732 mmHg 22%
    11:00 +27°C° 0 mm 4 mps 732 mmHg 20%
    12:00 +28°C° 0 mm 4 mps 732 mmHg 19%
    13:00 +29°C° 0 mm 5 mps 731 mmHg 19%
    14:00 +29°C° 0 mm 5 mps 731 mmHg 18%
    15:00 +28°C° 0 mm 4 mps 731 mmHg 21%
    16:00 +27°C° 0 mm 3 mps 731 mmHg 24%
    17:00 +25°C° 0 mm 2 mps 731 mmHg 27%
    18:00 +24°C° 0 mm 2 mps 731 mmHg 31%
    19:00 +22°C° 0 mm 1 mps 732 mmHg 35%
    20:00 +20°C° 0 mm 1 mps 732 mmHg 39%
    21:00 +20°C° 0 mm 1 mps 732 mmHg 37%
    22:00 +19°C° 0 mm 1 mps 732 mmHg 35%
    23:00 +19°C° 0 mm 1 mps 732 mmHg 34%

    25 January, Friday

    Time Temperature Precipitation Wind Pressure Humidity
    00:00 +18°C° 0 mm 1 mps 732 mmHg 30%
    01:00 +18°C° 0 mm 1 mps 732 mmHg 27%
    02:00 +16°C° 0 mm 1 mps 732 mmHg 24%
    03:00 +16°C° 0 mm 1 mps 731 mmHg 22%
    04:00 +15°C° 0 mm 1 mps 731 mmHg 19%
    05:00 +15°C° 0 mm 1 mps 731 mmHg 17%
    06:00 +16°C° 0 mm 1 mps 732 mmHg 15%
    07:00 +19°C° 0 mm 1 mps 732 mmHg 12%
    08:00 +20°C° 0 mm 1 mps 733 mmHg 10%
    09:00 +22°C° 0 mm 1 mps 733 mmHg 10%
    10:00 +24°C° 0 mm 1 mps 733 mmHg 11%
    11:00 +26°C° 0 mm 2 mps 733 mmHg 11%
    12:00 +27°C° 0 mm 2 mps 733 mmHg 14%
    13:00 +27°C° 0 mm 2 mps 732 mmHg 16%
    14:00 +28°C° 0 mm 3 mps 732 mmHg 18%
    15:00 +27°C° 0 mm 2 mps 732 mmHg 23%
    16:00 +26°C° 0 mm 2 mps 731 mmHg 28%
    17:00 +25°C° 0 mm 1 mps 731 mmHg 33%
    18:00 +24°C° 0 mm 1 mps 731 mmHg 35%
    19:00 +23°C° 0 mm 1 mps 732 mmHg 37%
    20:00 +20°C° 0 mm 0 mps 732 mmHg 39%
    21:00 +19°C° 0 mm 0 mps 732 mmHg 40%
    22:00 +19°C° 0 mm 0 mps 732 mmHg 40%
    23:00 +18°C° 0 mm 0 mps 731 mmHg 41%

    26 January, Saturday

    Time Temperature Precipitation Wind Pressure Humidity
    00:00 +17°C° 0 mm 0 mps 731 mmHg 44%
    01:00 +17°C° 0 mm 0 mps 731 mmHg 47%
    02:00 +16°C° 0 mm 0 mps 730 mmHg 50%
    03:00 +16°C° 0 mm 0 mps 730 mmHg 49%
    04:00 +16°C° 0 mm 0 mps 730 mmHg 48%
    05:00 +16°C° 0 mm 0 mps 730 mmHg 47%
    06:00 +17°C° 0 mm 0 mps 730 mmHg 43%
    07:00 +18°C° 0 mm 0 mps 731 mmHg 38%
    08:00 +20°C° 0 mm 0 mps 731 mmHg 33%
    09:00 +23°C° 0 mm 1 mps 732 mmHg 29%
    10:00 +25°C° 0 mm 1 mps 732 mmHg 24%
    11:00 +27°C° 0 mm 1 mps 732 mmHg 20%
    12:00 +27°C° 0 mm 2 mps 732 mmHg 19%
    13:00 +28°C° 0 mm 2 mps 731 mmHg 18%
    14:00 +28°C° 0 mm 2 mps 731 mmHg 17%
    15:00 +27°C° 0 mm 2 mps 731 mmHg 20%
    16:00 +26°C° 0 mm 2 mps 731 mmHg 23%
    17:00 +25°C° 0 mm 1 mps 731 mmHg 26%
    18:00 +24°C° 0 mm 1 mps 731 mmHg 26%
    19:00 +22°C° 0 mm 1 mps 731 mmHg 26%
    20:00 +21°C° 0 mm 1 mps 732 mmHg 26%
    21:00 +20°C° 0 mm 1 mps 732 mmHg 23%
    22:00 +20°C° 0 mm 1 mps 732 mmHg 21%
    23:00 +19°C° 0 mm 2 mps 732 mmHg 18%

    27 January, Sunday

    Time Temperature Precipitation Wind Pressure Humidity
    00:00 +18°C° 0 mm 2 mps 732 mmHg 17%
    01:00 +18°C° 0 mm 2 mps 731 mmHg 16%
    02:00 +17°C° 0 mm 2 mps 731 mmHg 15%
    03:00 +17°C° 0 mm 2 mps 731 mmHg 16%
    04:00 +17°C° 0 mm 2 mps 731 mmHg 16%
    05:00 +16°C° 0 mm 2 mps 731 mmHg 16%
    06:00 +17°C° 0 mm 2 mps 732 mmHg 15%
    07:00 +18°C° 0 mm 2 mps 732 mmHg 15%
    08:00 +19°C° 0 mm 2 mps 733 mmHg 14%
    09:00 +20°C° 0 mm 3 mps 733 mmHg 13%
    10:00 +22°C° 0 mm 3 mps 733 mmHg 13%
    11:00 +24°C° 0 mm 3 mps 734 mmHg 12%
    12:00 +25°C° 0 mm 3 mps 733 mmHg 12%
    13:00 +26°C° 0 mm 3 mps 733 mmHg 11%
    14:00 +26°C° 0 mm 4 mps 732 mmHg 11%
    15:00 +25°C° 0 mm 3 mps 732 mmHg 13%
    16:00 +25°C° 0 mm 3 mps 732 mmHg 14%
    17:00 +24°C° 0 mm 3 mps 733 mmHg 16%
    18:00 +21°C° 0 mm 3 mps 733 mmHg 18%
    19:00 +20°C° 0 mm 2 mps 733 mmHg 19%
    20:00 +18°C° 0 mm 2 mps 734 mmHg 21%
    21:00 +18°C° 0 mm 2 mps 734 mmHg 21%
    22:00 +17°C° 0 mm 2 mps 734 mmHg 21%
    23:00 +16°C° 0 mm 2 mps 734 mmHg 21%
    Show more